Location: Buckland
(65.9785°N, 161.1281°W)
Time: 22:08:49
(UTC+00:00)

PRISM - Pass Details

Date: 22 January 2021
Orbit: 565 x 584 km, 98.2° (Epoch: 06 March)

Event Time Altitude Azimuth Distance (km) Brightness Sun altitude
Rises 17:56:20 0° 34° (NE) 2,784 ? -11.9°
Reaches altitude 10° 18:00:01 10° 359° (N) 1,888 ? -11.5°
Maximum altitude 18:01:10 11° 343° (NNW) 1,821 ? -11.4°
Enters shadow 18:02:03 10° 330° (NNW) 1,863 ? -11.3°
